Wind_Speed
15 15 15 14 13 13 12 11 10 9 8 7 6 5 4 4 4 5 5 5 6 6 7 7 6 7 6 7 7 8 8 9 9 8 9 9 10 10 9 9 10 10
16 15 14 13 12 12 11 11 10 9 7 6 5 4 3 3 4 4 4 5 6 7 7 7 7 7 7 7 7 8 8 8 8 8 8 8 8 9 9 8 9 11
17 16 15 14 14 13 12 11 10 9 7 6 5 4 3 3 4 4 4 5 6 8 8 7 7 7 8 8 8 8 8 8 8 8 8 8 8 7 8 8 8 9
17 17 17 16 16 15 13 12 10 9 8 7 6 4 3 3 3 4 5 5 7 8 9 8 8 9 9 9 8 8 9 8 8 8 7 7 7 7 7 8 8 7
18 18 19 18 17 15 14 13 12 11 10 8 7 5 4 4 3 4 4 5 7 9 10 10 10 10 10 9 9 9 9 9 8 8 8 7 7 7 6 7 7 7
19 19 19 18 18 16 15 15 14 12 11 9 8 7 6 5 4 4 4 5 7 9 11 11 12 11 11 10 10 10 9 9 9 9 8 8 7 7 6 6 6 6
19 19 19 18 17 17 17 16 15 13 12 11 9 8 7 7 6 5 5 5 7 10 11 13 13 12 11 11 10 10 9 9 9 9 9 8 8 7 7 6 6 5
21 20 20 19 18 17 17 16 15 14 13 12 11 10 9 8 7 6 6 5 7 10 12 14 14 13 12 11 10 10 9 8 8 8 8 8 7 7 7 7 6 6
22 21 20 19 18 18 18 17 17 16 14 14 13 12 11 10 9 8 7 6 7 9 13 15 15 15 14 12 11 10 9 8 8 7 7 7 7 6 6 6 6 6
23 21 20 19 19 20 20 20 19 17 16 15 15 13 12 11 10 9 8 8 8 10 13 16 17 16 15 14 13 11 10 9 9 8 7 7 6 6 5 5 5 5
24 22 20 19 19 20 21 21 20 19 17 17 16 15 14 13 12 11 11 10 10 11 13 16 18 18 17 16 14 13 12 10 10 9 8 7 7 6 5 4 4 3
25 23 22 21 21 21 22 22 21 20 18 18 17 17 16 15 14 13 13 12 12 13 14 17 18 19 18 17 15 13 12 11 10 10 9 8 8 7 6 5 4 3
27 25 24 24 23 23 23 23 22 21 20 19 19 18 18 16 15 15 14 14 14 14 15 17 18 20 19 18 16 14 12 12 11 11 10 10 9 8 7 7 6 5
28 27 27 26 26 26 26 24 23 22 21 20 20 19 18 18 17 17 16 16 15 15 16 17 18 19 20 19 17 15 14 12 12 11 11 10 9 8 8 7 7 6
30 29 29 29 29 28 27 26 25 23 23 22 21 20 20 20 19 18 18 17 16 16 17 17 18 19 21 21 19 17 15 14 12 11 10 9 9 8 8 8 8 8
32 31 30 30 30 29 28 27 26 26 25 24 23 22 22 22 21 20 19 18 18 18 17 17 18 20 21 22 22 19 18 16 13 12 11 10 9 8 8 8 8 9
32 31 31 30 30 30 29 28 28 27 27 26 25 24 24 24 23 21 20 19 19 19 19 18 19 21 22 24 24 23 21 19 16 15 13 12 11 10 9 9 9 9
31 30 30 29 30 30 29 29 29 29 28 27 26 26 26 26 25 23 23 22 21 20 20 20 21 22 23 24 25 25 24 22 20 18 16 14 13 11 10 10 10 10
30 30 29 29 29 30 30 30 30 29 28 28 27 27 28 27 26 25 25 25 23 22 22 22 23 24 24 25 25 26 27 26 24 22 20 18 16 14 12 11 10 11
29 29 29 29 30 30 31 30 30 29 29 29 29 29 29 28 28 28 28 27 26 25 24 24 25 26 26 26 26 27 27 28 27 26 24 21 19 17 15 13 13 13
30 30 30 30 31 31 30 30 30 29 30 30 30 30 30 29 30 30 29 29 29 28 27 26 26 27 27 27 27 27 28 29 29 29 27 25 22 20 18 17 16 16
34 33 33 32 32 31 31 30 30 30 31 32 32 32 32 32 31 31 31 31 31 31 30 28 28 29 29 28 28 28 28 28 29 30 29 28 26 24 23 22 21 20
37 36 35 34 34 32 31 31 31 32 32 33 33 33 33 33 33 32 32 32 32 32 31 30 30 30 30 30 30 29 28 28 28 29 30 30 30 28 27 26 25 24
37 36 35 35 34 33 32 32 32 32 32 33 33 33 33 34 34 34 34 34 34 33 32 32 32 32 32 32 31 30 29 28 28 29 29 30 31 31 30 29 28 27
34 33 33 34 34 33 32 32 31 31 31 31 32 32 33 33 34 34 34 34 34 33 33 33 33 34 34 33 33 32 30 29 29 29 28 29 30 31 31 31 30 30
34 32 32 32 32 31 31 31 31 31 31 30 30 31 31 32 32 32 33 33 34 34 34 34 34 35 35 35 35 34 32 31 30 29 28 29 30 31 32 32 32 32
Wind_Direction
190 188 184 184 186 186 182 176 173 171 167 162 156 150 142 133 127 128 131 133 136 137 138 139 138 139 142 143 143 147 151 155 157 160 163 162 159 159 163 164 158 157
193 194 191 187 189 194 191 183 179 177 172 168 164 158 149 138 130 126 128 136 142 144 144 144 144 144 142 142 145 147 148 152 155 156 159 158 156 155 158 163 161 155
196 197 196 194 194 197 197 193 189 184 181 181 178 166 155 144 132 128 130 139 145 147 148 148 146 145 144 143 146 145 146 151 153 153 153 150 148 148 148 153 161 158
198 199 200 202 202 202 200 199 198 195 195 195 187 174 164 150 137 134 136 142 149 151 152 153 151 146 143 141 138 137 141 149 151 149 149 146 144 146 147 149 156 161
198 201 203 205 207 207 206 204 204 205 205 203 197 184 172 160 151 150 148 146 151 155 156 157 154 148 142 136 130 127 131 138 143 144 145 144 144 147 150 150 153 158
198 202 205 207 207 208 210 209 209 210 209 208 204 192 179 174 169 169 167 156 155 159 161 160 156 150 144 138 130 125 124 128 132 135 137 140 143 147 149 149 149 153
201 202 204 207 207 208 213 214 213 213 211 209 207 197 187 183 177 177 179 169 163 165 165 163 159 154 149 143 136 131 127 127 128 130 131 134 138 142 145 146 146 150
206 205 204 203 204 207 213 215 215 214 212 209 207 201 195 188 180 181 185 178 171 170 169 167 163 160 157 151 145 141 137 134 132 132 132 132 134 137 139 142 145 151
210 210 207 204 203 206 212 215 215 214 211 210 210 205 200 193 184 183 186 184 180 176 174 172 169 167 165 160 156 152 149 146 142 140 139 137 137 137 136 138 142 147
211 212 210 206 205 208 212 215 217 215 212 213 214 209 205 198 186 184 187 185 184 182 179 177 176 174 172 169 165 162 160 159 156 152 151 148 145 143 140 140 142 144
211 212 211 208 208 211 214 216 217 216 214 215 215 213 210 203 190 186 188 187 187 188 185 183 182 181 178 176 173 171 169 169 167 164 161 160 158 155 153 152 152 153
212 212 212 211 210 212 215 218 218 217 216 216 216 216 215 209 198 191 191 191 190 191 191 189 187 186 184 182 179 177 176 175 175 174 172 170 169 167 166 168 172 179
213 212 213 213 212 213 215 217 217 217 217 216 216 216 218 215 207 200 197 196 193 193 195 194 192 189 189 187 185 184 183 182 181 181 180 180 179 179 178 179 184 194
213 213 213 214 214 214 215 216 217 218 219 219 219 218 219 219 215 209 205 201 197 196 197 197 195 193 192 192 192 192 191 190 187 186 185 186 187 189 190 191 193 201
214 214 214 215 216 216 217 217 217 220 222 224 223 223 223 222 221 217 212 208 204 201 201 199 197 196 196 197 198 199 200 198 195 192 191 192 194 198 202 204 205 208
214 214 215 217 218 218 219 218 219 220 223 226 227 227 227 227 226 223 218 214 210 208 205 201 199 200 200 201 203 205 207 206 203 201 200 200 201 205 213 218 220 220
214 215 217 219 220 221 220 220 220 220 222 225 227 229 230 231 231 230 226 220 216 214 211 205 202 203 204 204 205 208 210 211 210 209 209 208 206 209 216 225 231 232
214 215 217 219 221 222 222 221 221 221 221 224 227 229 231 233 233 233 232 228 223 219 216 210 207 207 207 207 208 210 211 213 214 215 215 216 215 216 221 227 235 240
213 215 216 218 219 220 221 222 222 222 222 223 225 228 230 232 232 232 233 233 230 225 220 216 213 212 211 211 211 212 213 214 216 218 218 220 222 225 227 231 239 245
210 212 213 215 218 219 221 222 222 222 222 222 224 227 230 231 231 231 231 233 233 230 225 221 219 218 217 215 214 214 215 216 218 219 219 221 224 228 233 238 243 249
202 205 209 211 215 218 221 222 222 221 222 223 224 226 228 230 230 229 229 230 231 232 230 227 224 224 223 221 219 217 217 217 218 220 221 223 226 229 234 241 246 250
197 198 202 205 209 214 216 218 219 220 221 222 223 224 226 228 229 229 228 229 229 231 232 231 230 229 228 227 225 222 221 220 219 221 223 224 227 230 233 239 245 248
197 196 198 200 204 206 209 212 214 216 219 221 222 223 224 225 227 228 228 228 228 229 231 231 233 234 234 233 231 229 227 225 223 223 224 225 227 230 233 237 242 245
198 197 198 199 200 200 202 205 209 212 216 219 220 222 223 224 226 227 228 228 228 228 228 229 231 234 236 237 237 235 233 231 229 227 227 227 228 230 233 236 241 244
203 201 200 200 198 198 199 201 205 209 213 216 219 220 223 225 226 228 229 230 231 231 230 229 229 232 235 237 239 239 238 236 235 233 231 231 232 233 234 236 240 243
208 204 202 201 199 198 200 202 205 208 211 214 217 220 222 225 227 228 230 231 232 233 233 233 232 233 234 236 238 240 240 239 239 237 235 235 235 236 236 236 239 242
Height
5940 5941 5942 5943 5944 5945 5945 5946 5947 5948 5949 5950 5951 5952 5953 5954 5954 5955 5956 5956 5957 5957 5958 5958 5958 5959 5959 5959 5959 5960 5960 5961 5961 5962 5962 5963 5963 5963 5964 5964 5964 5965
5939 5940 5941 5943 5944 5945 5945 5946 5947 5948 5949 5950 5951 5952 5953 5954 5954 5955 5955 5956 5956 5957 5957 5958 5958 5958 5959 5959 5959 5960 5960 5961 5961 5962 5962 5963 5963 5963 5964 5964 5965 5965
5939 5940 5941 5942 5943 5944 5945 5945 5946 5947 5948 5949 5951 5952 5953 5953 5954 5954 5955 5955 5956 5956 5957 5957 5957 5958 5958 5959 5959 5960 5960 5961 5961 5962 5962 5963 5963 5964 5964 5965 5965 5965
5938 5939 5940 5941 5942 5943 5944 5945 5946 5947 5948 5949 5950 5951 5952 5953 5954 5954 5955 5955 5955 5956 5956 5957 5957 5958 5958 5959 5959 5959 5960 5961 5961 5962 5962 5963 5963 5964 5964 5965 5965 5966
5937 5938 5939 5940 5941 5942 5944 5945 5945 5946 5947 5948 5949 5951 5952 5952 5953 5953 5954 5954 5955 5955 5956 5956 5957 5958 5958 5959 5959 5959 5960 5961 5961 5962 5962 5963 5963 5964 5964 5965 5965 5966
5935 5937 5938 5940 5941 5942 5943 5944 5945 5946 5946 5947 5948 5950 5951 5952 5952 5953 5953 5954 5954 5955 5955 5956 5956 5957 5958 5958 5959 5959 5960 5961 5961 5962 5962 5963 5963 5964 5964 5965 5965 5966
5934 5936 5937 5939 5940 5942 5943 5944 5945 5945 5946 5947 5948 5949 5950 5951 5952 5952 5953 5953 5954 5954 5955 5955 5956 5957 5957 5958 5959 5959 5960 5961 5962 5962 5963 5963 5964 5964 5964 5965 5965 5966
5932 5934 5936 5938 5939 5941 5942 5943 5944 5945 5946 5946 5947 5948 5949 5950 5951 5951 5952 5953 5953 5954 5954 5955 5956 5956 5957 5958 5959 5960 5960 5961 5962 5962 5963 5964 5964 5964 5965 5965 5965 5966
5930 5932 5934 5936 5938 5940 5940 5942 5943 5944 5945 5945 5946 5947 5947 5948 5949 5950 5951 5952 5952 5953 5954 5954 5955 5956 5957 5958 5959 5959 5960 5961 5962 5963 5963 5964 5964 5965 5965 5965 5965 5966
5928 5931 5933 5935 5937 5938 5939 5940 5941 5942 5944 5944 5945 5946 5946 5947 5948 5949 5950 5951 5951 5952 5953 5954 5955 5956 5957 5958 5958 5959 5960 5961 5962 5963 5964 5964 5964 5965 5965 5965 5965 5966
5926 5929 5931 5933 5935 5936 5937 5939 5940 5941 5943 5943 5944 5945 5945 5946 5947 5948 5949 5949 5950 5951 5952 5953 5954 5955 5956 5957 5958 5959 5960 5961 5962 5963 5963 5964 5964 5965 5965 5965 5965 5965
5924 5927 5929 5931 5933 5934 5935 5936 5938 5940 5941 5942 5943 5944 5944 5945 5945 5946 5947 5948 5949 5950 5951 5952 5953 5954 5955 5957 5958 5959 5959 5960 5961 5962 5963 5963 5964 5964 5965 5965 5965 5965
5922 5924 5926 5928 5930 5931 5933 5934 5936 5938 5939 5940 5941 5942 5943 5944 5944 5945 5945 5946 5947 5948 5949 5950 5952 5953 5954 5956 5957 5958 5959 5960 5961 5961 5962 5963 5963 5964 5964 5964 5965 5965
5919 5921 5923 5925 5927 5928 5930 5932 5934 5936 5937 5938 5939 5941 5942 5942 5943 5943 5944 5944 5946 5947 5948 5949 5950 5952 5953 5954 5956 5957 5958 5959 5959 5960 5961 5961 5962 5963 5963 5964 5964 5965
5916 5918 5920 5922 5924 5926 5928 5930 5932 5933 5935 5936 5938 5939 5940 5940 5941 5941 5942 5943 5944 5945 5946 5947 5949 5950 5952 5953 5954 5955 5956 5957 5958 5959 5959 5960 5961 5961 5962 5962 5963 5964
5912 5915 5917 5919 5921 5923 5925 5927 5929 5931 5932 5934 5936 5937 5938 5938 5939 5940 5941 5942 5943 5944 5944 5946 5947 5948 5950 5951 5952 5953 5954 5955 5956 5957 5958 5959 5959 5960 5961 5961 5962 5962
5909 5911 5914 5916 5919 5921 5923 5924 5926 5927 5929 5931 5932 5934 5936 5936 5937 5938 5939 5940 5941 5942 5943 5944 5945 5946 5947 5949 5950 5951 5952 5953 5954 5955 5956 5957 5958 5959 5959 5960 5960 5961
5905 5908 5911 5913 5916 5918 5920 5921 5923 5924 5926 5928 5930 5932 5933 5934 5935 5936 5937 5938 5939 5940 5941 5942 5943 5944 5945 5946 5947 5949 5950 5951 5952 5953 5954 5955 5956 5957 5958 5958 5959 5959
5902 5905 5907 5910 5912 5914 5916 5918 5920 5922 5923 5925 5927 5928 5929 5931 5933 5934 5935 5935 5937 5938 5939 5940 5940 5941 5942 5943 5944 5946 5947 5949 5950 5951 5952 5953 5954 5955 5956 5957 5957 5958
5899 5901 5904 5906 5908 5910 5912 5915 5917 5919 5920 5921 5923 5924 5926 5929 5930 5931 5932 5933 5934 5935 5936 5937 5938 5938 5939 5940 5941 5943 5944 5945 5947 5948 5949 5951 5952 5953 5954 5955 5956 5956
5894 5897 5900 5902 5905 5907 5909 5912 5914 5915 5917 5918 5919 5921 5923 5925 5926 5928 5929 5930 5931 5932 5933 5935 5935 5936 5936 5937 5938 5940 5941 5942 5943 5945 5946 5948 5949 5950 5951 5952 5953 5954
5888 5891 5894 5897 5900 5903 5905 5908 5910 5912 5913 5914 5915 5917 5919 5921 5922 5924 5926 5927 5928 5929 5930 5932 5933 5933 5933 5934 5935 5937 5938 5939 5940 5941 5943 5945 5946 5947 5949 5950 5950 5951
5881 5884 5888 5891 5894 5897 5901 5903 5906 5907 5909 5910 5912 5913 5915 5917 5919 5921 5922 5923 5924 5926 5928 5929 5930 5930 5931 5931 5932 5934 5935 5936 5938 5939 5940 5941 5943 5944 5945 5946 5947 5948
5879 5879 5882 5887 5890 5893 5896 5898 5901 5903 5905 5907 5908 5909 5911 5913 5914 5916 5918 5919 5921 5923 5925 5926 5927 5927 5927 5928 5929 5930 5932 5933 5934 5935 5937 5938 5939 5940 5942 5943 5944 5945
5883 5880 5881 5884 5888 5891 5893 5895 5897 5899 5901 5903 5905 5906 5907 5909 5911 5913 5915 5916 5918 5919 5921 5922 5923 5924 5924 5925 5926 5927 5929 5930 5931 5932 5934 5935 5936 5937 5938 5940 5941 5941
5885 5884 5884 5886 5888 5890 5891 5892 5893 5896 5898 5900 5902 5903 5904 5906 5908 5910 5912 5913 5915 5916 5917 5919 5920 5921 5922 5923 5923 5924 5925 5926 5927 5929 5931 5932 5932 5933 5935 5936 5937 5938